Other Surface Observations
Issued by NWS

Home | Current Version | Previous Version | Text Only | Print | Product List | Glossary On
Versions: 1 2 3 4 5 6 7 8 9 10 11 12 13 14 15 16 17 18 19 20 21 22 23 24 25 26 27 28 29 30 31 32 33 34 35 36 37 38 39 40 41 42 43 44 45 46 47 48 49 50
964
SXUS52 KTAE 131918
OSOTAE
OSOTAE
North Florida/South Alabama/Southwest Georgia Weather Roundup
National Weather Service Tallahassee Florida
200 PM EST SAT FEB 13 2016

Note: "fair" indicates few or no clouds below 12,000 feet with no
significant weather and/or obstructions to visibility.

!FLZ017-115-028-034-025-132000
...North Florida...

CITY           SKY/WX    TMP DP  RH WIND       PRES   REMARKS
TALLAHASSEE    SUNNY     60  15  17 N15       30.31F
APALACHICOLA   SUNNY     62  24  23 N12       30.32F
PERRY          SUNNY     61  18  18 NW7       30.30F
CROSS CITY       N/A     65  25  22 N10       30.26F
JACKSONVILLE   SUNNY     60  14  16 NW14G21   30.25F
$$

!FLZ112-006-005-002-011-132000
...Florida Panhandle...

CITY           SKY/WX    TMP DP  RH WIND       PRES   REMARKS
MARIANNA       SUNNY     56  14  19 N14       30.33F
BONIFAY        NOT AVBL
PANAMA CITY NW FAIR      58  20  22 N9        30.33F
TYNDALL AFB    SUNNY     60  21  21 N8        30.33F
TYND DRONE APT FAIR      60  21  22 MISG      30.32F
DE FUNIAK SPR  FAIR      55  14  19 N12       30.35F
EGLIN AFB      MOSUNNY   59  18  20 N13G18    30.34F
DESTIN         SUNNY     60  19  20 N12G20    30.35F
HURLBURT       SUNNY     59  15  18 N13       30.34F
CRESTVIEW      SUNNY     57  14  18 VRB7      30.37F
PENSACOLA      SUNNY     58  20  22 N14       30.36F
$$

!ALZ063-066-132000
...South Alabama...

CITY           SKY/WX    TMP DP  RH WIND       PRES   REMARKS
DOTHAN         SUNNY     54  13  19 N10       30.36F
OZARK CAIRNS   SUNNY     54  16  22 N9        30.34F
FT RUCKER HELI SUNNY     56  14  19 N9        30.34F
RUCKER HELI 3  FAIR      53  11  18 NW8G15    30.36F
RUCKER HELI 2  NOT AVBL
FLORALA APT    SUNNY     54   8  16 N10G21    30.36
ANDALUSIA      SUNNY     58  13  17 N6G16     30.36F
TROY           SUNNY     53  14  21 N13G21    30.38F
EUFALA         FAIR      52  13  21 VRB5      30.34F
MOBILE         SUNNY     58  27  30 N10       30.38F
$$

!GAZ120>161-132000
...Southwest and South Central Georgia...

CITY           SKY/WX    TMP DP  RH WIND       PRES   REMARKS
THOMASVILLE    FAIR      54  19  26 N9        30.32F
BAINBRIDGE     SUNNY     55  18  22 N7        30.33F
MOODY AFB      SUNNY     55  18  23 N9        30.28F
VALDOSTA       SUNNY     57  16  20 N12G17    30.30F
MOULTRIE       SUNNY     54  19  26 NW8       30.32F
BLAKELY        SUNNY     55  18  22 NW9       30.34F
ALBANY         SUNNY     53  14  21 NW13G24   30.34F
TIFTON         FAIR      50  23  34 N16       30.31F WCI  45
FITZGERALD     FAIR      53  17  24 NW8G22    30.33F
CORDELE        FAIR      52  13  21 N14G20    30.33F
AMERICUS       FAIR      48  14  25 N12       30.34F WCI  43
HOMERVILLE     FAIR      55  27  33 NW10G16   30.29F
$$

!GMZ750-755-770-775-132000
...Coastal and Buoy Obs...

STATION/POSITION TIME  TEMP    WIND        PRES    VSBY  WAVE
                       AIR SEA DIR/SP/G                  HT/PER
                 (UTC) (F)     (DEG/KT/KT) (MB)    (MI)  (FT/S)
KEATON BEACH     1900   60      20/  3/  6 1025.1F
CEDAR KEY        1800   61     360/  4/  7 1025.4F
C TOWER          NOT AVBL
APALACHICOLA BUO 1850   56 66   10/ 16/ 17 1026.3F         5/ 6
PANAMA CITY BUOY 1850   56 68   20/ 14/ 16 1027.6F         6/ 7
MOBILE BUOY      NOT AVBL
ORANGE BCH AL BU 1850   54 65   20/  8/ 12 1028.1F         2/ 4
$$




USA.gov is the U.S. government's official web portal to all federal, state and local government web resources and services.